Regional Weather Roundup
Issued by NWS

Home | Current Version | Previous Version | Graphics & Text | Print | Product List | Glossary Off
Versions: 1 2 3 4 5 6 7 8 9 10 11 12 13 14 15 16 17 18 19 20 21 22 23 24 25 26 27 28 29 30 31 32 33 34 35 36 37 38 39 40 41 42 43 44 45 46 47 48 49 50

000
ASUS45 KABQ 262010
RWRNM
NEW MEXICO REGIONAL WEATHER ROUNDUP
NATIONAL WEATHER SERVICE ALBUQUERQUE NM
200 PM MDT TUE JUL 26 2016

NOTE: "FAIR" MEANS FEW OR NO CLOUDS BELOW 12,000 FEET AGL WITH NO
       SIGNIFICANT WEATHER OR OBSTRUCTIONS TO VISION.

      THIS PRODUCT IS RELEASED AS TWO VERSIONS.  ONE VERSION NEAR
      THE TOP OF THE HOUR CONTAINING PRELIMINARY DATA FROM ALBUQUERQUE
      AND OTHER STATIONS.  A FINAL VERSION WITH ADDITIONAL DATA IS
      ISSUED ABOUT 10 MINUTES AFTER THE HOUR.

NMZ501-503-504-510>518-262100-
NORTHWEST PLATEAU/NORTHCENTRAL MOUNTAINS

CITY           SKY/WX    TMP DP  RH WIND       PRES   REMARKS
FARMINGTON     FAIR      86  45  23 W8        30.17F
LOS ALAMOS     FAIR      78  50  36 SW7       30.31F
SANTA FE       FAIR      87  49  26 S7        30.21F
TAOS           FAIR      82  43  24 E6          N/A
ANGEL FIRE     PTSUNNY   77  48  35 E13G20    30.39S

$$
NMZ402-403-502-505>509-262100-
WESTCENTRAL MOUNTAINS/SOUTHWEST MOUNTAINS

CITY           SKY/WX    TMP DP  RH WIND       PRES   REMARKS
GALLUP         CLOUDY    86  46  24 VRB6      30.27F
GRANTS         TSTM      67  59  76 SW13      30.30S
SILVER CITY    FAIR      89  50  26 S5        30.18F

$$
NMZ407-409-411-412-262100-
SOUTHERN DESERTS

CITY           SKY/WX    TMP DP  RH WIND       PRES   REMARKS
LORDSBURG      FAIR      91  52  25 CALM      30.07F
DEMING         FAIR      95  53  24 S9        30.08F
LAS CRUCES     FAIR      94  51  22 S6        30.10F
HOLLOMAN AFB   FAIR      90  52  27 W1        30.07F
ALAMOGORDO     FAIR      90  50  25 SW3       30.10F
T OR C         FAIR      90  53  28 S8        30.11F

$$
NMZ519>523-262100-
CENTRAL VALLEYS/CENTRAL HIGHLANDS

CITY           SKY/WX    TMP DP  RH WIND       PRES   REMARKS
ALBUQUERQUE    FAIR      87  53  31 CALM      30.18F
MORIARTY ARPT  PTSUNNY   83  48  29 S13       30.24F
CLINES CORNERS FAIR      82  51  34 VRB3      30.30F
BELEN          FAIR      89  46  22 CALM      30.16F
SOCORRO        FAIR      91  51  26 NE5       30.13F

$$
NMZ524>526-539-540-262100-
SOUTHCENTRAL MOUNTAINS

CITY           SKY/WX    TMP DP  RH WIND       PRES   REMARKS
RUIDOSO          N/A     81  48  32 N9G16     30.31F

$$
NMZ527>531-262100-
NORTHEAST HIGHLANDS/NORTHEAST PLAINS

CITY           SKY/WX    TMP DP  RH WIND       PRES   REMARKS
LAS VEGAS      PTSUNNY   86  43  22 E10G16    30.26F
RATON          FAIR     N/A N/A N/A S9G20     30.22F
CLAYTON        FAIR      89  50  26 S6        30.15F

$$
NMZ532>537-262100-
EASTCENTRAL PLAINS

CITY           SKY/WX    TMP DP  RH WIND       PRES   REMARKS
TUCUMCARI      FAIR      92  54  27 SW8       30.08F
CANNON AFB     FAIR      88  59  37 VRB6      30.12F
CLOVIS AIRPORT FAIR      90  57  33 SE8       30.12F

$$
NMZ028-029-538-262100-
SOUTHEAST PLAINS

CITY           SKY/WX    TMP DP  RH WIND       PRES   REMARKS
ROSWELL        FAIR      91  59  33 MISG      30.07F
ARTESIA        FAIR      90  61  37 SE9       30.06F
CARLSBAD       FAIR      91  60  35 VRB6      30.03F
HOBBS          PTSUNNY   90  57  33 E10       30.08F


$$




USA.gov is the U.S. government's official web portal to all federal, state and local government web resources and services.